GLOBSTR M025
1 25770U 99031A   03022.19969418 -.00000086  00000-0  10000-3 0  3721
2 25770  51.9972 298.4839 0001984  22.0506 338.0446 12.62263953166905
GLOBSTR M049
1 25771U 99031B   03021.85664767 -.00000086  00000-0  10000-3 0  5602
2 25771  51.9886 299.2541 0001403  29.4998 330.5752 12.62264810166866
GLOBSTR M047
1 25772U 99031C   03021.89634744 -.00000086  00000-0  10000-3 0  4383
2 25772  51.9980 298.8702 0001201 125.5931 234.5038 12.62259132166879
GLOBSTR M052
1 25773U 99031D   03021.92271305  .00000983  00000-0  60642-2 0  3951
2 25773  51.9928 298.6436 0003743  24.6896 335.3649 12.62276798166871
GLOBSTR M035
1 25851U 99037A   03021.92110931 -.00000104  00000-0  00000-0 0  3643
2 25851  52.0040 343.5409 0000467 151.7312 208.3579 12.62259770163116
GLOBSTR M032
1 25852U 99037B   03021.93420034 -.00000104  00000-0  00000-0 0  3665
2 25852  52.0044 343.6705 0000385 174.2396 185.8476 12.62269307163114
GLOBSTR M051
1 25853U 99037C   03021.97381352 -.00000104  00000-0  00000-0 0  3647
2 25853  52.0046 343.7454 0000594 159.5828 200.5062 12.62259479163112
GLOBSTR M030
1 25854U 99037D   03021.94733656 -.00000104  00000-0  00000-0 0  3609
2 25854  52.0026 343.6951 0000412 110.3731 249.7179 12.62270420163112
GLOBSTR M048
1 25872U 99041A   03021.98523426 -.00000104  00000-0  00000-0 0  4083
2 25872  52.0074  29.1726 0001149 154.7355 205.3568 12.62271267161234
GLOBSTR M026
1 25873U 99041B   03021.52362725 -.00000104  00000-0  00000-0 0  3750
2 25873  52.0063  30.6693 0001026 176.8192 183.2682 12.62260028161178
GLOBSTR M043
1 25874U 99041C   03021.48372505 -.00000104  00000-0  00000-0 0  3753
2 25874  52.0084  30.9629 0001552 159.5109 200.5819 12.62270358161165
GLOBSTR M028
1 25875U 99041D   03021.47068369 -.00000104  00000-0  00000-0 0  3472
2 25875  52.0068  30.8582 0001641 172.5516 187.5375 12.62266115161168
GLOBSTR M024
1 25883U 99043A   03021.62747983 -.00000104  00000-0  00000-0 0  3713
2 25883  52.0103  75.8368 0002651 151.6303 208.4709 12.62267169158308
GLOBSTR M054
1 25884U 99043B   03022.19484096 -.00000104  00000-0  00000+0 0  3551
2 25884  52.0052  73.7078 0001225 108.8193 251.2485 12.62265541158381
GLOBSTR M027
1 25885U 99043C   03022.23437667 -.00000104  00000-0  00000+0 0  3560
2 25885  52.0076  73.7964 0001602  79.1388 280.9634 12.62263669158381
GLOBSTR M053
1 25886U 99043D   03022.48520146 -.00000104  00000-0  00000+0 0  3541
2 25886  51.9859  73.2031 0001355  27.4608 332.6329 12.62264970158411
GLOBSTR M058
1 25907U 99049A   03021.58790555 -.00000086  00000-0  10000-3 0  3650
2 25907  51.9981  75.2832 0003566 125.1842 234.9359 12.62261387154551
GLOBSTR M050
1 25908U 99049B   03021.75778961 -.00000054  00000-0  27737-3 0  3703
2 25908  51.9914 119.2800 0002357  93.1711 266.9425 12.62261129153808
GLOBSTR M033
1 25909U 99049C   03021.65390112 -.00000086  00000-0  10000-3 0  3543
2 25909  52.0007  75.0767 0002940 164.3898 195.7059 12.62263421154541
GLOBSTR M055
1 25910U 99049D   03021.77093248 -.00000076  00000-0  15649-3 0  3686
2 25910  51.9990 119.4042 0002958 125.5065 234.6077 12.62267307153814
GLOBSTR M057
1 25943U 99058A   03021.96562533 -.00000086  00000-0  10000-3 0  7659
2 25943  51.9945 209.0450 0001733  86.4097 273.6928 12.62259872150542
GLOBSTR M059
1 25944U 99058B   03021.92601796 -.00000086  00000-0  10000-3 0  3321
2 25944  52.0055 208.7222 0002150  76.3667 283.7441 12.62268593150569
GLOBSTR M056
1 25945U 99058C   03021.84858982 -.00000086  00000-0  10000-3 0  6811
2 25945  51.9954 164.0701 0002939  94.5523 265.5679 12.62263555151295
GLOBSTR M031
1 25946U 99058D   03021.94083627 -.00000111  00000-0 -40611-4 0  3784
2 25946  51.9950 164.0896 0002460 120.6104 239.5005 12.62262960151329
GLOBSTR M039
1 25961U 99062A   03021.96073929 -.00000086  00000-0  10000-3 0  6660
2 25961  51.9979 343.6566 0000196 174.8364 185.2493 12.62264788146949
GLOBSTR M034
1 25962U 99062B   03022.44721578  .00005922  00000-0  33604-1 0  3297
2 25962  52.0005  27.7553 0000917 168.7957 191.2202 12.62267593146222
GLOBSTR M029
1 25963U 99062C   03021.73136040 -.00000086  00000-0  10000-3 0  7022
2 25963  51.9943 119.5887 0005119 118.4303 241.7080 12.62261301156630
GLOBSTR M061
1 25964U 99062D   03021.53660034 -.00000086  00000-0  10000-3 0  3392
2 25964  51.9973  30.1345 0001738 193.6715 166.4105 12.62258897146115
GLOBSTR M063
1 26081U 00008A   03022.54798636 -.00000086  00000-0  10000-3 0  3993
2 26081  51.9952 162.2144 0001759 113.9517 246.1534 12.62261084144768
GLOBSTR M062
1 26082U 00008B   03021.86999480 -.00000104  00000-0  00000-0 0  3164
2 26082  52.0115 299.7248 0000846  80.4693 279.6273 12.62259266136381
GLOBSTR M060
1 26083U 00008C   03021.91276184 -.00000086  00000-0  10000-3 0  3882
2 26083  52.0118 209.7440 0002493 105.0179 255.0972 12.62270180143899
GLOBSTR M064
1 26084U 00008D   03022.52916844 -.00000149  00000-0  00000+0 0  4993
2 26084  52.0161 187.3926 0009805  27.2115 332.9383 13.92914649150288
MACSAT 2 M 2
1 20608U 90043B   03021.86322381  .00001541  00000-0  23434-3 0   240
2 20608  89.8510 144.1752 0093945 247.8145 111.3087 14.70625641679485
TUBSAT A 
1 21577U 91050D   03022.54352855  .00000342  00000-0  12613-3 0  6746
2 21577  98.1535  12.2367 0005404 223.5377 136.5385 14.38123037604157
S80/T 
1 22078U 92052C   03021.91153136 -.00000037  00000-0  10000-3 0  1539
2 22078  66.0818 179.5976 0016344 280.4537  79.4640 12.86681396490903
HEALTHSAT 1 
1 22827U 93061E   03022.52350861  .00000335  00000-0  14687-3 0  4981
2 22827  98.2749  54.7153 0008893 328.3123  31.7528 14.29663914486130
TUBSAT B 
1 22970U 94003B   03021.98053401  .00000051  00000-0  10000-3 0  9149
2 22970  82.5623 359.8356 0016024 337.3327  22.7085 13.16887389432229
CERISE 
1 23606U 95033B   03022.19659929  .00003088  00000-0  40024-3 0   403
2 23606  98.3662  24.3051 0008160  98.8265 261.3862 14.81583653405147
UPM/LBSAT 
1 23607U 95033C   03021.97178354  .00001320  00000-0  21161-3 0  2036
2 23607  98.3858  15.3718 0006812 125.1977 234.9858 14.73471834404510
FAISAT 2V 
1 24954U 97052B   03021.72293691  .00000115  00000-0  96681-4 0  7003
2 24954  82.9209 266.0392 0038217 220.7373 139.0923 13.79475858268245
MUBLCOM 
1 25736U 99026B   03022.19073473  .00002216  00000-0  67173-3 0  8560
2 25736  97.7695 134.7951 0004467  86.4300 273.7400 14.43099764193351
RUBIN 3 
1 27561U 02054C   03022.34875742  .00000278  00000-0  78318-4 0   336
2 27561  98.2356 271.0694 0039911 268.8744  90.7874 14.52721588  7990
SIRIUS-1 
1 26390U 00035A   03019.62143506  .00000062  00000-0  10000-3 0  4434
2 26390  63.1385 276.0148 2698265 270.5117  59.2295  1.00272865  9379
SIRIUS-2 
1 26483U 00051A   03021.27549148  .00000086  00000-0  00000+0 0  3240
2 26483  63.4382 156.0835 2712584 268.4038  60.6793  1.00275833  8726
SIRIUS-3 
1 26626U 00077A   03020.94969773 -.00000093  00000-0  00000+0 0  3407
2 26626  63.7281  35.8678 2683358 270.2085  59.3937  1.00271542  7855
XM-2 
1 26724U 01012A   03020.50964402 -.00000017  00000-0  00000+0 0  4128
2 26724   0.0230 237.8423 0000180 190.9321 119.1410  1.00272542  6838
XM-1 
1 26761U 01018A   03019.78287646 -.00000196  00000-0  10000-3 0  2694
2 26761   0.0185 165.1955 0000257 212.0551 298.2083  1.00269490  6302
GPS BII-02 
1 20061U 89044A   03021.45619889  .00000077  00000-0  10000-3 0  6894
2 20061  53.4204 186.8654 0225897 253.6696 103.8056  2.00551941 99780
GPS BII-05 
1 20361U 89097A   03021.00519883 -.00000042  00000-0  00000-0 0  4223
2 20361  55.9029 318.5810 0148174 191.6736 168.0073  2.00568040 86620
GPS BII-08 
1 20724U 90068A   03011.26837337 -.00000074  00000-0  00000-0 0  4270
2 20724  56.1923  13.1194 0186066 228.1475 130.4622  2.00337507 89561
GPS BII-09 
1 20830U 90088A   03021.04115708 -.00000039  00000-0  00000-0 0  3706
2 20830  55.7868 316.2330 0080536 114.9224 245.9502  2.00544389 90402
GPS BIIA-10 
1 20959U 90103A   03021.04214082 -.00000055  00000-0  00000-0 0  4395
2 20959  56.4000  15.2452 0164136 262.8593  95.2786  2.00436109 88993
GPS BIIA-11 
1 21552U 91047A   03020.86252119 -.00000037  00000-0  00000-0 0  4889
2 21552  55.9861 314.6721 0097731 273.8292  85.0825  2.00571619 84589
GPS BIIA-12 
1 21890U 92009A   03021.32701377  .00000017  00000-0  00000-0 0  4900
2 21890  53.8984 127.6713 0103990 259.2364  99.5934  2.00574257 79961
GPS BIIA-14 
1 22014U 92039A   03020.07500813 -.00000020  00000-0  00000-0 0  2403
2 22014  55.8664  72.3996 0139040  24.4760 336.2569  2.00560326 70703
GPS BIIA-15 
1 22108U 92058A   03020.50003081  .00000016  00000-0  00000-0 0  2618
2 22108  54.1539 129.1929 0169554 225.8212 132.7735  2.00557969 75897
GPS BIIA-16 
1 22231U 92079A   03021.36316372 -.00000024  00000-0  00000-0 0  3614
2 22231  55.7097  73.2294 0056035 262.4391  96.9975  2.00552116 74488
GPS BIIA-17 
1 22275U 92089A   03021.04891290 -.00000024  00000-0  00000-0 0  2153
2 22275  55.6928  70.5818 0082562 260.0559  99.0844  2.00569782 73894
GPS BIIA-18 
1 22446U 93007A   03020.44291372  .00000074  00000-0  00000-0 0  3089
2 22446  53.3924 187.6822 0158225  49.3487 311.9866  2.00572757 72860
GPS BIIA-19 
1 22581U 93017A   03021.07862167  .00000057  00000-0  14325-5 0  9746
2 22581  53.8523 249.6031 0112479  51.9510 309.1355  2.00566319 71934
GPS BIIA-20 
1 22657U 93032A   03021.71830959  .00000054  00000-0  00000-0 0  3013
2 22657  53.8866 249.6032 0120757 253.3502 105.3922  2.00552856 67275
GPS BIIA-21 
1 22700U 93042A   03021.18414046  .00000020  00000-0  00000-0 0  8411
2 22700  54.2871 130.3190 0138233  51.4846 309.7444  2.00565102 70060
